GFSFLT2_prec_cloud_276.txt.gz
Cloud_Cover
73 44 3 0 0 0 0 0 0 0 0 0 0 0 0 0 0 0 0 0 0 0 0 0 0 0 0 0 0 0 0 42
100 61 39 28 19 0 0 0 0 0 0 0 9 0 0 0 0 0 0 0 0 0 0 0 0 0 0 0 0 0 4 2
100 100 54 47 35 25 3 0 0 0 0 0 38 30 2 0 0 0 0 0 0 0 0 0 0 0 0 0 0 6 13 13
63 88 100 34 36 76 38 27 20 20 10 12 48 61 38 0 0 0 0 0 0 0 0 0 0 0 0 0 0 0 2 3
62 88 46 5 92 84 65 61 56 44 29 34 45 91 87 32 10 0 0 0 0 0 0 0 0 0 0 0 0 0 2 0
100 100 95 77 100 34 62 45 98 98 46 40 92 99 100 44 30 2 0 0 0 0 0 0 0 0 0 0 0 0 0 0
55 100 100 100 95 94 72 59 100 99 81 46 86 87 94 100 25 22 3 0 0 0 0 0 0 0 0 0 0 0 0 0
5 56 100 99 95 99 100 100 92 100 100 57 43 66 85 100 98 34 14 4 0 0 0 0 0 0 0 0 0 0 0 0
16 100 100 100 100 92 83 100 100 100 100 49 21 27 58 96 98 40 16 5 0 0 0 0 0 0 0 0 0 0 0 0
45 55 100 100 100 100 100 100 100 100 94 46 23 19 7 35 84 98 22 16 1 0 0 0 0 0 0 0 0 0 0 0
5 100 100 100 100 100 100 100 100 100 100 100 98 61 72 86 83 94 100 74 36 0 5 1 0 0 0 0 0 0 0 0
5 95 100 100 100 100 100 100 100 100 100 100 100 100 85 100 99 96 47 100 100 33 0 2 1 0 3 5 0 0 0 1
28 98 100 100 100 100 100 100 100 100 100 100 100 100 50 54 95 99 83 100 100 100 4 4 0 0 0 7 11 1 0 3
100 90 100 100 100 100 100 100 100 100 100 100 100 100 98 100 72 100 100 100 100 100 64 4 0 0 1 5 8 5 29 3
69 100 99 100 100 100 100 100 100 100 100 100 100 100 100 100 100 100 100 100 100 100 100 6 4 1 0 5 74 6 26 48
51 25 100 82 28 60 100 100 100 100 100 100 100 100 100 100 100 100 100 87 100 100 100 91 72 5 5 0 5 5 6 90
0 1 74 100 82 92 100 100 100 100 100 100 100 100 100 100 100 100 100 100 100 97 88 100 96 98 11 5 5 5 5 5
0 0 0 91 100 100 100 100 100 100 100 100 100 100 100 100 100 100 100 100 100 100 95 87 74 66 84 16 8 5 21 5
0 0 0 0 100 100 100 95 89 100 99 100 100 100 100 100 100 100 100 100 100 100 95 100 25 10 34 75 63 59 5 5
0 0 2 3 0 58 100 100 100 100 100 96 100 100 100 100 100 100 100 100 100 79 73 100 100 91 99 53 36 41 5 6

GFSFLT2_prec_cloud_279.txt.gz
Cloud_Cover
5 0 0 2 0 0 0 0 0 0 0 0 0 0 0 0 0 0 0 0 0 0 0 0 0 0 0 0 0 0 0 14
22 5 0 0 0 11 0 0 0 0 0 0 0 0 0 0 0 0 0 0 0 0 0 0 0 0 0 0 0 0 0 0
26 31 2 0 0 5 13 3 0 1 0 14 61 0 0 1 0 0 0 0 0 0 0 0 0 0 0 0 0 0 0 0
100 80 22 7 0 3 1 0 0 0 0 0 0 0 0 0 0 0 0 0 0 0 0 0 0 0 2 14 0 0 0 0
98 100 100 45 5 5 4 6 4 0 0 0 2 0 0 0 0 0 0 0 0 0 5 0 0 0 0 0 0 0 0 0
100 82 100 100 78 32 19 95 87 7 3 0 0 0 10 0 0 0 0 0 0 0 0 0 0 0 0 0 0 0 0 0
97 100 100 97 100 100 71 70 99 91 32 5 1 0 0 0 4 0 0 0 0 0 0 0 0 0 0 0 0 0 0 0
82 80 100 100 100 100 100 100 100 100 76 66 38 5 2 0 5 0 0 0 0 0 0 0 0 0 0 0 0 0 0 0
16 100 87 100 100 100 100 100 100 100 100 100 97 63 6 5 5 13 5 2 0 0 0 0 0 0 0 0 0 0 0 0
5 9 90 100 90 100 100 100 100 100 100 100 100 99 67 43 46 57 59 14 0 0 0 0 0 0 0 0 0 0 0 0
5 5 98 100 100 100 100 100 88 81 100 100 100 100 98 36 91 58 63 100 14 3 5 2 0 0 0 0 0 0 0 0
5 5 7 100 100 100 100 100 100 100 100 100 100 100 100 100 99 91 16 86 96 6 31 29 9 4 2 0 0 0 0 0
5 5 4 95 100 100 100 100 100 100 100 100 100 100 100 100 100 100 99 62 90 100 79 100 10 17 5 4 1 0 0 0
93 93 12 5 100 100 100 100 100 100 100 100 100 100 100 100 100 100 100 100 100 98 91 100 64 6 70 8 31 5 5 5
91 94 96 47 6 96 100 100 100 100 100 100 100 100 100 100 100 100 100 100 100 96 66 100 90 6 5 5 60 52 5 5
0 0 86 100 85 5 36 94 100 100 100 100 100 100 100 100 100 100 100 100 100 100 89 100 100 100 4 5 6 44 5 5
0 0 0 10 100 97 49 58 62 94 100 100 100 100 61 100 100 100 100 100 100 100 100 100 100 100 37 6 2 5 3 5
0 0 0 0 0 77 100 73 100 99 100 100 100 100 100 100 100 100 100 100 100 100 100 100 100 100 100 100 72 27 7 2
0 0 0 0 0 0 50 100 100 100 100 100 100 100 100 100 100 100 100 100 100 100 50 100 100 100 100 100 99 83 46 7
0 0 0 0 0 0 0 12 44 99 100 100 100 100 100 100 100 100 100 100 100 100 100 100 100 100 92 100 100 100 74 100

GFSFLT2_prec_cloud_285.txt.gz
Cloud_Cover
27 5 34 5 5 0 0 0 0 0 0 0 0 0 0 0 0 0 0 0 0 0 0 0 0 0 0 0 0 0 0 0
12 92 16 0 5 6 0 0 0 0 0 0 0 6 0 0 0 0 0 0 0 0 0 0 0 0 0 0 0 0 0 0
76 52 100 38 5 7 13 6 1 9 0 0 67 0 0 5 2 0 0 0 0 0 0 0 0 3 0 0 0 0 0 0
100 100 100 100 53 5 1 0 0 0 0 0 0 0 0 0 0 0 0 0 0 0 0 0 22 0 3 0 0 0 0 6
100 100 100 100 100 80 31 16 0 0 0 0 0 0 0 0 0 0 0 0 0 20 7 0 1 5 0 0 0 0 0 0
100 100 100 100 100 100 100 100 30 1 0 0 0 0 0 0 0 0 0 0 1 0 0 12 19 26 3 0 0 0 0 0
100 100 100 100 100 100 100 100 90 84 11 1 5 2 3 0 0 0 0 0 1 0 0 0 4 18 8 1 0 0 0 0
64 100 100 94 98 100 100 100 100 100 97 15 5 5 5 5 0 0 3 1 0 0 2 1 0 12 2 10 19 13 0 0
97 86 17 12 72 100 69 100 100 100 100 100 6 2 11 5 5 0 0 5 5 2 2 0 0 1 41 8 2 2 8 0
100 86 56 19 10 69 100 100 100 100 100 100 94 6 1 5 4 5 5 5 5 5 5 5 4 0 0 1 0 16 10 29
92 100 100 76 8 20 99 75 100 100 100 100 100 81 34 6 100 87 50 29 3 5 13 5 73 4 0 1 0 0 2 19
91 85 100 58 71 97 97 100 88 100 100 97 100 100 100 75 11 85 100 100 86 6 8 68 6 16 5 3 3 2 0 2
100 84 72 18 54 22 7 100 84 57 24 100 100 100 100 69 94 26 31 94 100 100 91 23 100 7 86 4 5 5 4 5
37 94 59 5 5 10 14 5 98 100 99 100 100 100 100 100 100 100 61 31 7 88 100 89 8 98 90 39 34 5 5 5
98 97 100 86 8 5 5 5 5 52 100 99 100 100 100 100 100 100 100 95 88 75 97 100 100 78 89 100 44 17 5 5
24 89 100 96 80 9 5 4 5 22 20 34 28 87 100 100 100 100 100 100 100 100 67 55 100 100 100 100 100 100 100 95
0 0 0 0 93 100 32 6 0 2 19 16 34 14 90 100 100 100 100 100 100 100 100 99 39 100 100 100 100 100 100 100
0 2 0 0 0 0 29 97 50 2 9 15 26 46 34 88 100 100 100 100 100 100 100 100 100 88 96 100 100 92 78 100
1 2 0 0 0 0 0 0 6 80 29 28 44 34 20 17 91 100 100 100 100 100 100 100 100 100 94 96 100 100 98 72
5 5 0 0 0 0 0 0 0 1 7 54 71 70 41 13 30 84 100 100 100 100 100 100 100 100 100 100 100 100 96 100

GFSFLT2_prec_cloud_288.txt.gz
Cloud_Cover
39 16 5 0 0 0 0 0 0 0 0 0 0 0 0 0 0 0 0 0 0 0 0 0 0 0 0 0 0 0 0 0
12 47 71 15 5 1 0 0 0 0 0 0 0 5 0 0 0 0 0 0 0 0 0 0 0 0 0 0 0 0 0 0
100 100 100 7 5 5 4 6 1 8 0 0 68 0 0 0 0 0 0 0 0 0 0 0 0 2 0 0 0 0 39 0
100 100 100 100 100 99 11 0 0 0 0 0 0 0 0 0 0 0 0 0 0 0 0 0 0 0 0 0 0 0 30 0
100 100 100 100 100 100 100 70 4 0 0 0 0 0 0 0 0 0 0 0 0 12 0 0 0 0 0 0 0 0 0 0
100 100 89 100 100 100 100 100 100 9 5 0 0 52 0 0 0 0 0 0 0 0 0 0 23 88 85 39 0 0 1 0
100 100 100 97 92 91 100 100 100 100 95 9 4 0 0 0 0 0 0 0 0 0 0 0 1 0 0 0 0 0 0 0
100 100 100 99 97 66 37 91 89 98 100 100 68 5 4 0 0 0 0 0 3 14 0 84 15 26 5 0 84 0 0 27
100 100 100 92 65 73 78 100 100 99 87 100 100 63 36 23 5 5 4 4 0 2 0 14 63 0 73 91 0 0 34 0
82 100 100 100 60 30 63 100 93 96 100 100 100 100 96 88 84 16 6 5 5 5 1 5 0 5 3 0 16 0 0 0
32 41 97 73 59 83 95 78 79 100 100 100 100 100 100 100 94 92 62 22 10 10 5 5 5 2 5 5 2 0 54 92
46 74 99 86 54 14 36 5 7 78 89 97 100 100 100 100 100 99 100 100 64 11 23 6 60 20 5 5 5 3 0 9
100 100 54 35 56 80 93 72 5 56 83 82 100 100 100 100 100 100 100 100 100 100 27 22 49 9 85 23 5 24 5 5
90 100 100 100 95 66 67 41 43 4 69 97 86 100 100 100 100 100 100 100 100 100 100 70 7 69 5 90 93 70 11 5
84 22 46 70 100 92 49 9 10 26 2 67 66 60 100 100 100 100 100 100 100 100 100 100 64 30 92 25 56 100 96 11
6 73 97 91 32 100 100 82 10 5 3 0 18 75 97 100 100 100 100 100 100 100 100 100 100 97 7 100 99 25 100 100
63 99 91 74 98 97 84 100 99 11 0 0 0 5 6 100 100 100 100 100 100 100 100 100 100 100 100 73 67 100 100 100
2 5 3 1 2 5 72 100 100 97 16 0 0 0 4 31 100 100 100 100 100 100 100 100 100 100 100 86 88 51 100 100
5 5 5 4 0 0 0 0 17 100 98 6 0 0 0 0 7 100 100 100 100 100 100 100 100 100 100 100 100 99 100 91
5 3 5 5 0 0 0 0 0 0 64 100 51 1 0 20 0 5 99 100 100 100 100 100 100 100 100 100 100 100 100 96

GFSFLT2_prec_cloud_291.txt.gz
Cloud_Cover
14 5 0 0 0 0 0 0 0 0 0 0 0 0 0 0 0 0 0 0 0 0 0 0 0 0 0 0 0 0 0 0
64 5 11 5 5 5 2 0 0 0 0 0 0 0 0 0 0 0 0 0 0 0 0 0 0 0 0 0 0 0 0 0
100 94 100 8 9 6 5 5 1 7 0 0 74 0 0 0 0 0 0 0 0 0 0 0 0 0 0 0 0 0 0 0
100 100 100 92 96 25 5 10 78 26 0 0 0 0 0 0 0 0 0 0 0 0 0 0 0 0 0 0 0 0 0 0
100 100 100 100 72 100 87 100 100 97 44 0 0 0 0 0 0 0 0 0 17 2 0 0 0 0 0 0 0 0 0 0
100 100 99 68 99 100 100 98 98 100 99 99 14 0 0 0 0 0 0 0 0 0 0 0 0 0 2 0 0 0 0 0
100 100 100 100 100 90 65 100 37 75 48 98 100 42 6 0 0 0 0 0 3 0 0 0 0 0 35 0 0 0 0 0
100 100 100 100 100 100 63 99 100 43 56 98 94 93 98 6 5 0 5 3 0 4 4 0 0 1 0 0 0 0 0 0
100 100 100 100 100 98 100 74 72 87 77 100 100 100 100 100 38 5 5 5 5 5 28 56 23 100 2 45 3 0 0 0
64 34 90 68 32 99 100 10 61 100 100 100 100 100 100 100 100 90 34 13 7 28 84 97 12 69 1 0 22 0 0 0
100 100 98 14 5 16 89 100 19 35 68 73 100 100 100 100 100 100 100 100 100 60 54 92 92 83 12 2 33 9 0 0
100 100 98 81 53 37 39 47 27 100 42 10 88 100 100 100 100 100 100 100 100 100 100 100 100 95 60 73 5 5 5 5
99 100 100 100 90 100 100 86 61 18 95 6 14 99 93 80 100 100 100 100 100 100 100 100 100 100 100 100 95 27 48 10
100 100 100 98 100 94 92 88 89 5 24 6 5 22 99 100 100 100 100 100 100 100 100 100 100 100 100 100 100 100 50 31
100 99 100 100 80 84 66 100 74 10 5 5 5 5 6 74 100 100 100 100 100 100 100 100 100 100 100 100 100 100 100 99
99 95 100 100 90 52 37 70 43 97 33 4 5 2 5 8 94 100 100 100 100 100 100 100 100 100 100 100 100 100 100 100
1 1 3 12 93 99 100 85 90 9 56 36 5 1 4 5 33 64 99 100 100 100 100 100 100 100 100 100 100 100 100 100
0 0 0 0 0 0 1 5 33 91 72 16 24 5 0 5 7 95 96 100 100 100 100 100 100 100 100 100 100 100 100 100
0 0 1 4 2 0 3 0 0 1 20 93 66 29 4 0 0 3 39 100 100 100 100 100 100 100 100 100 100 100 100 100
0 0 0 0 0 0 0 0 0 0 0 0 5 87 31 3 0 0 4 38 100 100 100 100 100 100 100 100 100 100 100 100